Location: Kunchanapalle
(16.4623°N, 80.6176°E)
Time: 12:41:34
(UTC+00:00)

Daily predictions for brighter satellites

Satellite Brightness Start Highest point End
(mag) Time Altitude Azimuth Time Altitude Azimuth Time Altitude Azimuth
Cosmos 1302 Rocket 4.0 13:18:35 10° N 13:23:45 64° ENE 13:28:55 10° SSE
Yuri Rocket 3.9 13:20:22 10° WSW 13:25:34 55° NNW 13:29:47 10° NE
CENTAUR R/B 3.5 13:22:46 10° SE 13:25:55 16° ESE 13:29:12 10° ENE
Cosmos 292 Rocket 3.8 13:21:52 10° N 13:26:35 65° ENE 13:31:17 10° SSE
CZ-2D R/B 3.2 13:23:57 10° SSE 13:27:44 89° ENE 13:31:32 10° N
CSL-04 Rocket 4.1 13:23:41 10° SE 13:28:35 39° ENE 13:33:27 10° N
Iridium 2 3.7 13:28:07 10° N 13:31:47 57° E 13:35:27 10° SSE
Delta 202 4.4 13:22:58 10° W 13:31:50 76° N 13:37:54 10° E
Cosmos 1441 Rocket 4.2 13:30:55 10° SSE 13:34:05 25° E 13:37:14 10° NE
ARGOS 4.3 13:33:23 10° SE 13:37:37 24° ENE 13:41:50 10° NNE
HJ-1C 4.2 13:35:24 10° SE 13:38:25 32° ENE 13:41:27 10° NNE
Okean-O 3.4 13:34:36 10° S 13:38:56 56° WSW 13:43:16 10° NNW
COSMOS 2406 4.4 13:36:25 10° SW 13:41:56 48° WNW 13:47:27 10° N
Cosmos 2082 Rocket 2.3 13:36:52 10° S 13:42:24 53° ESE 13:47:54 10° NNE
CZ-4 R/B 1.9 13:39:02 10° S 13:42:51 60° W 13:46:43 10° NNW
Cosmos 1328 Rocket 3.6 13:39:52 10° N 13:44:19 90° SE 13:48:44 10° S
Ariane Rocket 4.5 13:41:42 12° ESE 13:44:25 18° ENE 13:47:42 10° NNE
GPS 2-15 Rocket1 3.7 13:40:27 10° SW 13:44:46 38° SSE 13:48:12 15° E
Sakura Rocket 4.1 13:36:43 10° WNW 13:44:57 80° NNE 13:49:55 15° ESE
Cosmos 1805 Rocket 4.0 13:43:23 10° SSE 13:47:30 39° E 13:51:37 10° NNE
Cosmos 1782 3.4 13:44:26 10° NNE 13:48:08 36° E 13:51:51 10° SSE
Cosmos 407 Rocket 3.5 13:42:56 10° S 13:48:16 78° ESE 13:53:34 10° NNE
SL-08 R/B 4.5 13:42:25 10° S 13:48:36 63° E 13:54:41 10° NNE
Cosmos 1190 Rocket 4.0 13:45:04 10° S 13:50:13 62° ESE 13:55:25 10° NNE
CZ-3B R/B 3.2 13:51:05 10° WNW 13:54:01 70° NNE 13:59:38 17° ESE
CZ-2C R/B 2.8 13:50:06 10° NNE 13:55:07 46° E 14:00:13 10° S
Cosmos 1992 Rocket 4.3 13:51:32 10° N 13:56:30 45° ENE 14:00:39 14° SE
Cosmos 1140 Rocket 3.4 13:55:24 10° S 14:00:37 78° ESE 14:05:51 10° NNE
Cosmos 1339 Rocket 4.4 13:55:01 10° N 14:01:18 78° E 14:07:27 10° S
deb Kosmos-1763 3.9 13:58:06 10° S 14:01:38 60° ESE 14:05:11 10° NNE
ARIANE 5 R/B 4.4 13:39:07 10° WSW 14:02:16 29° SSW 14:06:22 15° SSE
Cosmos 1023 Rocket 4.4 13:57:46 10° SSW 14:03:01 86° ESE 14:08:17 10° NNE
Meteor 1-26 Rocket 4.2 13:59:05 10° N 14:04:29 80° W 14:09:53 10° S
Cosmos 1633 Rocket 4.3 14:06:01 21° E 14:06:01 21° E 14:08:53 10° NE
Aureole 1 Rocket 4.0 14:00:00 10° S 14:05:34 58° E 14:12:45 10° NNE
NOSS 3-2 (A) 3.2 14:00:14 10° SSW 14:05:35 81° WNW 14:11:16 10° NNE
NOSS 3-2 (C) 3.1 14:09:27 10° SSW 14:14:45 61° ESE 14:20:19 10° NNE
ATLAS 5 CENTAUR R/B 3.2 14:13:40 10° N 14:19:40 38° ENE 14:22:12 29° ESE
Cosmos 2084 Rocket 3.3 14:17:58 10° SSW 14:21:58 55° ESE 14:26:02 10° NE
Meteor 2-6 Rocket 4.3 14:17:57 10° N 14:23:31 56° E 14:26:34 27° SSE
USA 267 3.5 14:19:59 10° NNE 14:26:29 70° NW 14:32:58 10° SW
Cosmos 1934 Rocket 4.3 14:23:57 22° SSE 14:27:43 45° E 14:33:42 10° NNE
CZ-2C R/B 3.9 14:25:03 10° S 14:29:46 45° W 14:34:21 10° NNW
H-2A R/B 2.6 14:26:23 10° S 14:31:33 58° WSW 14:36:34 10° NNW
Cosmos 1656 3.9 14:26:44 10° N 14:32:05 49° ENE 14:33:06 43° ESE
IRS-1A Rocket 4.2 14:34:37 36° SSE 14:36:58 71° ENE 14:42:37 10° N
Sich 1 3.8 14:35:32 10° SSW 14:39:50 53° W 14:44:10 10° N
Cosmos 1697 Rocket 3.8 14:36:37 10° NNE 14:40:23 27° NE 14:40:23 27° NE
CZ-2C R/B 3.5 14:37:58 10° N 14:42:28 87° W 14:44:28 33° SSW
SJ-6B 3.0 14:43:07 62° NNE 14:43:07 62° NNE 14:46:37 10° N
Cosmos 1727 Rocket 4.1 14:37:10 10° N 14:43:30 79° W 14:48:30 17° S
Cosmos 2228 Rocket 3.6 14:42:37 10° NNW 14:46:54 55° W 14:48:37 33° SSW
Resurs 01 Rocket 4.1 14:55:04 11° NNE 14:55:04 11° NNE 14:55:18 10° NNE
GPS 2-17 Rocket1 3.3 14:50:16 10° W 14:54:08 62° WSW 14:54:08 62° WSW
VEP-3 3.4 14:51:44 10° WNW 14:57:27 86° NNE 15:02:03 41° ESE
Meteor 1-27 Rocket 4.0 14:55:49 10° N 15:00:50 55° NE 15:00:50 55° NE
Palapa 6 Rocket 4.3 14:55:37 10° WNW 15:03:20 85° SSW 15:04:52 63° ESE
ATLAS 2A CENTAUR R/B 4.2 14:11:33 10° WSW 15:08:02 78° SSE 15:12:52 43° E
CENTAUR R/B 3.6 15:11:01 10° SW 15:15:53 36° WNW 15:21:21 10° N
CZ-3A R/B 3.7 14:44:29 10° WNW 15:17:49 72° N 15:20:48 51° ENE
Cosmos 1605 Rocket 4.5 15:25:29 51° N 15:25:29 51° N 15:29:55 10° N
ATLAS 5 CENTAUR R/B 3.6 15:25:29 10° SW 15:49:35 10° ENE 15:50:02 10° ENE
ATLAS 5 CENTAUR R/B 4.2 15:58:42 10° NW 16:03:48 27° WSW 16:03:48 27° WSW
Cosmos 1980 Rocket 4.5 16:06:17 10° NNW 16:07:42 18° NNW 16:07:42 18° NNW
Lacrosse 5 rocket 4.0 21:46:37 20° ENE 21:46:37 20° ENE 21:48:15 10° NE
ATLAS 3B CENTAUR R/B 3.9 21:36:47 22° WNW 21:46:26 57° N 21:53:05 10° E
Intelsat 5-1 Rocket 3.8 21:57:29 68° SSW 21:58:40 75° SSE 22:20:17 10° ENE
USA 281 3.7 21:58:42 10° NNE 22:05:05 54° ESE 22:06:52 42° SSE
ATLAS 2AS CENTAUR R/B 4.2 22:09:49 17° SSE 22:15:00 36° ESE 22:22:04 10° NE
Atlas Centaur 2 4.2 22:16:24 19° NW 22:19:28 26° N 22:25:41 10° NE
Cosmos 883 Rocket 4.3 22:24:24 71° WSW 22:24:49 74° W 22:31:04 10° N
Centaur AC-72 2.9 22:25:40 51° WNW 22:27:21 89° NNE 22:37:45 10° E
SeaSat 1 2.8 22:22:43 10° NNE 22:26:43 52° NNW 22:26:43 52° NNW
SWIFT 3.2 22:30:45 43° ESE 22:30:45 43° ESE 22:33:52 10° E
DELTA 2 R/B (1) 3.6 22:32:18 62° WNW 22:32:40 63° NW 22:38:14 10° NE
Cosmos 494 Rocket 4.2 22:28:21 10° N 22:33:32 70° ENE 22:38:42 10° SSE
PSLV R/B 4.3 22:33:41 10° N 22:36:42 40° NNW 22:36:42 40° NNW
Aureole 2 Rocket 4.5 22:38:07 19° E 22:38:07 19° E 22:40:07 10° NE
Meteor 1-31 Rocket 4.4 22:41:43 10° NE 22:45:08 31° E 22:48:20 11° SSE
Cosmos 1745 Rocket 3.9 22:39:13 10° NNW 22:45:16 58° W 22:48:07 31° SSW
Cosmos 1484 Rocket 4.1 22:43:49 10° NNE 22:47:18 37° E 22:50:07 14° SSE
GPS 2-12 Rocket1 3.0 22:47:27 62° W 22:48:13 83° N 22:53:01 10° ENE
Hubble Space Telescope 3.2 22:46:51 12° NNW 22:48:28 15° N 22:50:52 10° NE
DELTA 4 R/B 3.8 22:42:21 29° WSW 22:50:43 71° SSE 22:55:31 10° ENE
CZ-2C R/B 2.5 22:46:47 10° N 22:51:16 49° WNW 22:51:34 48° W
deb Chang Zheng 4 3.5 22:46:58 10° N 22:51:17 67° WNW 22:51:59 56° SW
Cosmos 1812 Rocket 3.6 22:50:25 26° S 22:52:48 76° E 22:57:06 10° N
Cosmos 1932 4.4 22:47:31 10° NW 22:53:42 56° WSW 22:59:45 10° S
Ariane H10 4.4 22:56:54 21° SSW 22:58:40 25° SSE 23:08:12 10° ESE
CZ-4B R/B 3.2 22:56:40 10° SE 22:59:39 31° ENE 23:02:33 10° NNE
GPS 2-18 Rocket1 3.6 23:02:32 39° SSW 23:02:32 39° SSW 23:05:52 10° SE
Delta 142 3.4 23:02:35 47° WSW 23:03:19 55° SSW 23:07:28 10° SE
Cosmos 2278 Rocket 2.2 23:01:43 27° SSW 23:04:51 65° WNW 23:10:28 10° N
ADEOS 3.6 22:59:59 10° N 23:05:06 61° WNW 23:08:31 21° SSW
H-2A R/B 2.8 23:08:45 30° WNW 23:08:45 30° WNW 23:11:40 10° NW
Cosmos 1400 Rocket 2.6 23:09:27 21° SSW 23:11:56 70° W 23:15:48 10° N
Cosmos 1455 2.2 23:11:25 26° SSW 23:13:24 57° W 23:17:11 10° N
Chandra Rocket (1) 3.1 23:08:42 22° WSW 23:16:03 76° NNW 23:20:05 10° ENE
CZ-4B R/B 3.5 23:15:49 10° NNE 23:20:09 63° E 23:24:18 10° S
ASTEX 1 3.7 23:16:39 10° NNE 23:21:31 69° E 23:26:25 10° S
ASTRO E2 2.6 23:20:01 28° WSW 23:22:00 75° NNW 23:25:57 10° ENE
Cosmos 482 Debris 4.4 23:23:10 24° SSW 23:23:10 24° SSW 23:24:20 10° S
USA 102 4.1 23:22:06 33° WSW 23:23:03 38° W 23:28:48 10° NW
Lacrosse 5 rocket 3.3 23:22:17 15° WNW 23:23:21 16° NW 23:26:09 10° NNW
SEDSat Delta rocket 4.1 23:19:58 21° WSW 23:24:32 75° NNW 23:31:21 10° ENE
ERS-2 3.3 23:25:24 22° W 23:25:24 22° W 23:28:03 10° NW
Cosmos 1709 Rocket 4.1 23:19:21 10° NNW 23:25:10 48° W 23:30:59 10° SSW
ALOS 2.2 23:21:47 10° N 23:26:23 64° WNW 23:31:00 10° SSW
Meteor 2-10 Rocket 4.1 23:29:09 12° SW 23:33:23 34° W 23:38:07 10° NNW
COSMOS 2455 4.1 23:33:02 10° S 23:38:37 42° ESE 23:44:14 10° NE
CREW DRAGON DEMO-1 DEB 3.2 23:37:04 17° WSW 23:39:06 46° NW 23:42:02 10° NNE
SAR-Lupe-4 3.7 23:36:27 10° S 23:39:54 48° WSW 23:43:21 10° NNW
ATLAS 2A CENTAUR R/B 1.5 23:38:49 16° W 23:40:16 29° SSW 23:42:03 10° SE
Cosmos 1315 Rocket 3.1 23:36:40 10° S 23:40:44 77° E 23:44:51 10° N
Cosmos-2242 3.0 23:36:39 10° SSW 23:40:56 62° W 23:45:15 10° N
NOSS 3-4 (A) 4.0 23:37:09 12° SW 23:42:02 37° WNW 23:47:28 10° N
Cosmos 1269 Rocket 4.5 23:37:12 10° NW 23:42:03 38° W 23:46:54 10° SSW
NOSS 3-4 (C) 3.9 23:37:14 12° SW 23:42:09 37° WNW 23:47:37 10° N
ATLAS 2A CENTAUR R/B 2.1 23:40:45 13° W 23:43:23 52° SSW 23:52:45 10° ESE
Nadezhda 1 Rocket 4.0 23:37:44 10° S 23:44:06 76° W 23:50:30 10° N
GPS 2-04 Rocket1 2.9 23:41:47 14° WSW 23:44:37 49° NNW 23:48:13 10° NE
USA 81 4.4 23:40:28 10° N 23:45:43 70° E 23:50:57 10° S
Cosmos 2058 3.2 23:42:59 10° NNW 23:47:00 47° W 23:51:02 10° SSW
Cosmos 2297 4.0 23:47:29 10° S 23:53:12 78° ESE 23:58:55 10° NNE
